Year,Month,Day,Hour,Minute,Value (Times are PST for insolation in W/m^2)
2023,10,10,00,00,0.00
2023,10,10,00,01,0.00
2023,10,10,00,02,0.00
2023,10,10,00,03,0.00
2023,10,10,00,04,0.00
2023,10,10,00,05,0.00
2023,10,10,00,06,0.00
2023,10,10,00,07,0.00
2023,10,10,00,08,0.00
2023,10,10,00,09,0.00
2023,10,10,00,10,0.00
2023,10,10,00,11,0.00
2023,10,10,00,12,0.00
2023,10,10,00,13,0.00
2023,10,10,00,14,0.00
2023,10,10,00,15,0.00
2023,10,10,00,16,0.00
2023,10,10,00,17,0.00
2023,10,10,00,18,0.00
2023,10,10,00,19,0.00
2023,10,10,00,20,0.00
2023,10,10,00,21,0.00
2023,10,10,00,22,0.00
2023,10,10,00,23,0.00
2023,10,10,00,24,0.00
2023,10,10,00,25,0.00
2023,10,10,00,26,0.00
2023,10,10,00,27,0.00
2023,10,10,00,28,0.00
2023,10,10,00,29,0.00
2023,10,10,00,30,0.00
2023,10,10,00,31,0.00
2023,10,10,00,32,0.00
2023,10,10,00,33,0.00
2023,10,10,00,34,0.00
2023,10,10,00,35,0.00
2023,10,10,00,36,0.00
2023,10,10,00,37,0.00
2023,10,10,00,38,0.00
2023,10,10,00,39,0.00
2023,10,10,00,40,0.00
2023,10,10,00,41,0.00
2023,10,10,00,42,0.00
2023,10,10,00,43,0.00
2023,10,10,00,44,0.00
2023,10,10,00,45,0.00
2023,10,10,00,46,0.00
2023,10,10,00,47,0.00
2023,10,10,00,48,0.00
2023,10,10,00,49,0.00
2023,10,10,00,50,0.00
2023,10,10,00,51,0.00
2023,10,10,00,52,0.00
2023,10,10,00,53,0.00
2023,10,10,00,54,0.00
2023,10,10,00,55,0.00
2023,10,10,00,56,0.00
2023,10,10,00,57,0.00
2023,10,10,00,58,0.00
2023,10,10,00,59,0.00
2023,10,10,01,00,0.00
2023,10,10,01,01,0.00
2023,10,10,01,02,0.00
2023,10,10,01,03,0.00
2023,10,10,01,04,0.00
2023,10,10,01,05,0.00
2023,10,10,01,06,0.00
2023,10,10,01,07,0.00
2023,10,10,01,08,0.00
2023,10,10,01,09,0.00
2023,10,10,01,10,0.00
2023,10,10,01,11,0.00
2023,10,10,01,12,0.00
2023,10,10,01,13,0.00
2023,10,10,01,14,0.00
2023,10,10,01,15,0.00
2023,10,10,01,16,0.00
2023,10,10,01,17,0.00
2023,10,10,01,18,0.00
2023,10,10,01,19,0.00
2023,10,10,01,20,0.00
2023,10,10,01,21,0.00
2023,10,10,01,22,0.00
2023,10,10,01,23,0.00
2023,10,10,01,24,0.00
2023,10,10,01,25,0.00
2023,10,10,01,26,0.00
2023,10,10,01,27,0.00
2023,10,10,01,28,0.00
2023,10,10,01,29,0.00
2023,10,10,01,30,0.00
2023,10,10,01,31,0.00
2023,10,10,01,32,0.00
2023,10,10,01,33,0.00
2023,10,10,01,34,0.00
2023,10,10,01,35,0.00
2023,10,10,01,36,0.00
2023,10,10,01,37,0.00
2023,10,10,01,38,0.00
2023,10,10,01,39,0.00
2023,10,10,01,40,0.00
2023,10,10,01,41,0.00
2023,10,10,01,42,0.00
2023,10,10,01,43,0.00
2023,10,10,01,44,0.00
2023,10,10,01,45,0.00
2023,10,10,01,46,0.00
2023,10,10,01,47,0.00
2023,10,10,01,48,0.00
2023,10,10,01,49,0.00
2023,10,10,01,50,0.00
2023,10,10,01,51,0.00
2023,10,10,01,52,0.00
2023,10,10,01,53,0.00
2023,10,10,01,54,0.00
2023,10,10,01,55,0.00
2023,10,10,01,56,0.00
2023,10,10,01,57,0.00
2023,10,10,01,58,0.00
2023,10,10,01,59,0.00
2023,10,10,02,00,0.00
2023,10,10,02,01,0.00
2023,10,10,02,02,0.00
2023,10,10,02,03,0.00
2023,10,10,02,04,0.00
2023,10,10,02,05,0.00
2023,10,10,02,06,0.00
2023,10,10,02,07,0.00
2023,10,10,02,08,0.00
2023,10,10,02,09,0.00
2023,10,10,02,10,0.00
2023,10,10,02,11,0.00
2023,10,10,02,12,0.00
2023,10,10,02,13,0.00
2023,10,10,02,14,0.00
2023,10,10,02,15,0.00
2023,10,10,02,16,0.00
2023,10,10,02,17,0.00
2023,10,10,02,18,0.00
2023,10,10,02,19,0.00
2023,10,10,02,20,0.00
2023,10,10,02,21,0.00
2023,10,10,02,22,0.00
2023,10,10,02,23,0.00
2023,10,10,02,24,0.00
2023,10,10,02,25,0.00
2023,10,10,02,26,0.00
2023,10,10,02,27,0.00
2023,10,10,02,28,0.00
2023,10,10,02,29,0.00
2023,10,10,02,30,0.00
2023,10,10,02,31,0.00
2023,10,10,02,32,0.00
2023,10,10,02,33,0.00
2023,10,10,02,34,0.00
2023,10,10,02,35,0.00
2023,10,10,02,36,0.00
2023,10,10,02,37,0.00
2023,10,10,02,38,0.00
2023,10,10,02,39,0.00
2023,10,10,02,40,0.00
2023,10,10,02,41,0.00
2023,10,10,02,42,0.00
2023,10,10,02,43,0.00
2023,10,10,02,44,0.00
2023,10,10,02,45,0.00
2023,10,10,02,46,0.00
2023,10,10,02,47,0.00
2023,10,10,02,48,0.00
2023,10,10,02,49,0.00
2023,10,10,02,50,0.00
2023,10,10,02,51,0.00
2023,10,10,02,52,0.00
2023,10,10,02,53,0.00
2023,10,10,02,54,0.00
2023,10,10,02,55,0.00
2023,10,10,02,56,0.00
2023,10,10,02,57,0.00
2023,10,10,02,58,0.00
2023,10,10,02,59,0.00
2023,10,10,03,00,0.00
2023,10,10,03,01,0.00
2023,10,10,03,02,0.00
2023,10,10,03,03,0.00
2023,10,10,03,04,0.00
2023,10,10,03,05,0.00
2023,10,10,03,06,0.00
2023,10,10,03,07,0.00
2023,10,10,03,08,0.00
2023,10,10,03,09,0.00
2023,10,10,03,10,0.00
2023,10,10,03,11,0.00
2023,10,10,03,12,0.00
2023,10,10,03,13,0.00
2023,10,10,03,14,0.00
2023,10,10,03,15,0.00
2023,10,10,03,16,0.00
2023,10,10,03,17,0.00
2023,10,10,03,18,0.00
2023,10,10,03,19,0.00
2023,10,10,03,20,0.00
2023,10,10,03,21,0.00
2023,10,10,03,22,0.00
2023,10,10,03,23,0.00
2023,10,10,03,24,0.00
2023,10,10,03,25,0.00
2023,10,10,03,26,0.00
2023,10,10,03,27,0.00
2023,10,10,03,28,0.00
2023,10,10,03,29,0.00
2023,10,10,03,30,0.00
2023,10,10,03,31,0.00
2023,10,10,03,32,0.00
2023,10,10,03,33,0.00
2023,10,10,03,34,0.00
2023,10,10,03,35,0.00
2023,10,10,03,36,0.00
2023,10,10,03,37,0.00
2023,10,10,03,38,0.00
2023,10,10,03,39,0.00
2023,10,10,03,40,0.00
2023,10,10,03,41,0.00
2023,10,10,03,42,0.00
2023,10,10,03,43,0.00
2023,10,10,03,44,0.00
2023,10,10,03,45,0.00
2023,10,10,03,46,0.00
2023,10,10,03,47,0.00
2023,10,10,03,48,0.00
2023,10,10,03,49,0.00
2023,10,10,03,50,0.00
2023,10,10,03,51,0.00
2023,10,10,03,52,0.00
2023,10,10,03,53,0.00
2023,10,10,03,54,0.00
2023,10,10,03,55,0.00
2023,10,10,03,56,0.00
2023,10,10,03,57,0.00
2023,10,10,03,58,0.00
2023,10,10,03,59,0.00
2023,10,10,04,00,0.00
2023,10,10,04,01,0.00
2023,10,10,04,02,0.00
2023,10,10,04,03,0.00
2023,10,10,04,04,0.00
2023,10,10,04,05,0.00
2023,10,10,04,06,0.00
2023,10,10,04,07,0.00
2023,10,10,04,08,0.00
2023,10,10,04,09,0.00
2023,10,10,04,10,0.00
2023,10,10,04,11,0.00
2023,10,10,04,12,0.00
2023,10,10,04,13,0.00
2023,10,10,04,14,0.00
2023,10,10,04,15,0.00
2023,10,10,04,16,0.00
2023,10,10,04,17,0.00
2023,10,10,04,18,0.00
2023,10,10,04,19,0.00
2023,10,10,04,20,0.00
2023,10,10,04,21,0.00
2023,10,10,04,22,0.00
2023,10,10,04,23,0.00
2023,10,10,04,24,0.00
2023,10,10,04,25,0.00
2023,10,10,04,26,0.00
2023,10,10,04,27,0.00
2023,10,10,04,28,0.00
2023,10,10,04,29,0.00
2023,10,10,04,30,0.00
2023,10,10,04,31,0.00
2023,10,10,04,32,0.00
2023,10,10,04,33,0.00
2023,10,10,04,34,0.00
2023,10,10,04,35,0.00
2023,10,10,04,36,0.00
2023,10,10,04,37,0.00
2023,10,10,04,38,0.00
2023,10,10,04,39,0.00
2023,10,10,04,40,0.00
2023,10,10,04,41,0.00
2023,10,10,04,42,0.00
2023,10,10,04,43,0.00
2023,10,10,04,44,0.00
2023,10,10,04,45,0.00
2023,10,10,04,46,0.00
2023,10,10,04,47,0.00
2023,10,10,04,48,0.00
2023,10,10,04,49,0.00
2023,10,10,04,50,0.00
2023,10,10,04,51,0.00
2023,10,10,04,52,0.00
2023,10,10,04,53,0.00
2023,10,10,04,54,0.00
2023,10,10,04,55,0.00
2023,10,10,04,56,0.00
2023,10,10,04,57,0.00
2023,10,10,04,58,0.00
2023,10,10,04,59,0.00
2023,10,10,05,00,0.00
2023,10,10,05,01,0.00
2023,10,10,05,02,0.00
2023,10,10,05,03,0.00
2023,10,10,05,04,0.00
2023,10,10,05,05,0.00
2023,10,10,05,06,0.00
2023,10,10,05,07,0.00
2023,10,10,05,08,0.00
2023,10,10,05,09,0.00
2023,10,10,05,10,0.00
2023,10,10,05,11,0.00
2023,10,10,05,12,0.00
2023,10,10,05,13,0.00
2023,10,10,05,14,0.00
2023,10,10,05,15,0.00
2023,10,10,05,16,0.00
2023,10,10,05,17,0.00
2023,10,10,05,18,0.00
2023,10,10,05,19,0.00
2023,10,10,05,20,0.00
2023,10,10,05,21,0.00
2023,10,10,05,22,0.00
2023,10,10,05,23,0.00
2023,10,10,05,24,0.00
2023,10,10,05,25,0.00
2023,10,10,05,26,0.00
2023,10,10,05,27,0.00
2023,10,10,05,28,0.00
2023,10,10,05,29,0.00
2023,10,10,05,30,0.00
2023,10,10,05,31,0.00
2023,10,10,05,32,0.00
2023,10,10,05,33,0.00
2023,10,10,05,34,0.00
2023,10,10,05,35,0.00
2023,10,10,05,36,0.00
2023,10,10,05,37,0.00
2023,10,10,05,38,0.00
2023,10,10,05,39,0.00
2023,10,10,05,40,0.00
2023,10,10,05,41,0.00
2023,10,10,05,42,0.00
2023,10,10,05,43,0.00
2023,10,10,05,44,0.00
2023,10,10,05,45,0.00
2023,10,10,05,46,0.00
2023,10,10,05,47,0.00
2023,10,10,05,48,0.00
2023,10,10,05,49,0.00
2023,10,10,05,50,0.00
2023,10,10,05,51,0.00
2023,10,10,05,52,0.00
2023,10,10,05,53,0.00
2023,10,10,05,54,0.00
2023,10,10,05,55,0.00
2023,10,10,05,56,0.00
2023,10,10,05,57,0.00
2023,10,10,05,58,0.00
2023,10,10,05,59,0.00
2023,10,10,06,00,0.00
2023,10,10,06,01,0.00
2023,10,10,06,02,0.00
2023,10,10,06,03,0.00
2023,10,10,06,04,0.00
2023,10,10,06,05,0.00
2023,10,10,06,06,0.00
2023,10,10,06,07,0.00
2023,10,10,06,08,0.00
2023,10,10,06,09,0.00
2023,10,10,06,10,0.00
2023,10,10,06,11,0.00
2023,10,10,06,12,0.00
2023,10,10,06,13,0.00
2023,10,10,06,14,0.00
2023,10,10,06,15,0.00
2023,10,10,06,16,0.00
2023,10,10,06,17,0.00
2023,10,10,06,18,0.00
2023,10,10,06,19,0.00
2023,10,10,06,20,0.00
2023,10,10,06,21,0.00
2023,10,10,06,22,0.00
2023,10,10,06,23,0.00
2023,10,10,06,24,0.00
2023,10,10,06,25,0.00
2023,10,10,06,26,0.00
2023,10,10,06,27,0.00
2023,10,10,06,28,0.00
2023,10,10,06,29,0.00
2023,10,10,06,30,0.00
2023,10,10,06,31,0.00
2023,10,10,06,32,0.00
2023,10,10,06,33,0.00
2023,10,10,06,34,0.00
2023,10,10,06,35,0.00
2023,10,10,06,36,0.00
2023,10,10,06,37,0.00
2023,10,10,06,38,0.00
2023,10,10,06,39,0.00
2023,10,10,06,40,0.00
2023,10,10,06,41,0.00
2023,10,10,06,42,0.00
2023,10,10,06,43,0.00
2023,10,10,06,44,0.00
2023,10,10,06,45,0.00
2023,10,10,06,46,0.00
2023,10,10,06,47,0.00
2023,10,10,06,48,0.00
2023,10,10,06,49,0.00
2023,10,10,06,50,0.00
2023,10,10,06,51,0.00
2023,10,10,06,52,0.00
2023,10,10,06,53,0.00
2023,10,10,06,54,0.00
2023,10,10,06,55,0.00
2023,10,10,06,56,0.00
2023,10,10,06,57,0.00
2023,10,10,06,58,0.00
2023,10,10,06,59,0.00
2023,10,10,07,00,0.00
2023,10,10,07,01,0.00
2023,10,10,07,02,0.00
2023,10,10,07,03,0.00
2023,10,10,07,04,0.00
2023,10,10,07,05,0.00
2023,10,10,07,06,0.00
2023,10,10,07,07,0.00
2023,10,10,07,08,0.00
2023,10,10,07,09,0.00
2023,10,10,07,10,0.00
2023,10,10,07,11,0.00
2023,10,10,07,12,0.00
2023,10,10,07,13,0.00
2023,10,10,07,14,0.00
2023,10,10,07,15,0.00
2023,10,10,07,16,0.00
2023,10,10,07,17,0.00
2023,10,10,07,18,0.00
2023,10,10,07,19,0.00
2023,10,10,07,20,0.00
2023,10,10,07,21,0.00
2023,10,10,07,22,0.00
2023,10,10,07,23,0.00
2023,10,10,07,24,0.00
2023,10,10,07,25,0.00
2023,10,10,07,26,0.00
2023,10,10,07,27,0.00
2023,10,10,07,28,0.00
2023,10,10,07,29,0.00
2023,10,10,07,30,0.00
2023,10,10,07,31,0.00
2023,10,10,07,32,0.00
2023,10,10,07,33,0.00
2023,10,10,07,34,0.00
2023,10,10,07,35,0.00
2023,10,10,07,36,0.00
2023,10,10,07,37,0.00
2023,10,10,07,38,0.00
2023,10,10,07,39,0.00
2023,10,10,07,40,0.00
2023,10,10,07,41,4.80
2023,10,10,07,42,5.00
2023,10,10,07,43,5.00
2023,10,10,07,44,5.60
2023,10,10,07,45,7.00
2023,10,10,07,46,7.00
2023,10,10,07,47,7.00
2023,10,10,07,48,7.00
2023,10,10,07,49,8.40
2023,10,10,07,50,9.00
2023,10,10,07,51,9.00
2023,10,10,07,52,9.00
2023,10,10,07,53,9.00
2023,10,10,07,54,8.70
2023,10,10,07,55,7.00
2023,10,10,07,56,7.00
2023,10,10,07,57,7.00
2023,10,10,07,58,5.90
2023,10,10,07,59,5.00
2023,10,10,08,00,5.00
2023,10,10,08,01,5.00
2023,10,10,08,02,5.00
2023,10,10,08,03,5.00
2023,10,10,08,04,5.00
2023,10,10,08,05,5.00
2023,10,10,08,06,5.00
2023,10,10,08,07,5.00
2023,10,10,08,08,5.00
2023,10,10,08,09,5.00
2023,10,10,08,10,5.00
2023,10,10,08,11,6.40
2023,10,10,08,12,7.00
2023,10,10,08,13,7.00
2023,10,10,08,14,7.10
2023,10,10,08,15,9.00
2023,10,10,08,16,9.40
2023,10,10,08,17,11.00
2023,10,10,08,18,11.00
2023,10,10,08,19,11.40
2023,10,10,08,20,12.00
2023,10,10,08,21,12.00
2023,10,10,08,22,13.40
2023,10,10,08,23,14.00
2023,10,10,08,24,14.00
2023,10,10,08,25,14.10
2023,10,10,08,26,16.00
2023,10,10,08,27,16.00
2023,10,10,08,28,16.00
2023,10,10,08,29,16.00
2023,10,10,08,30,16.00
2023,10,10,08,31,16.00
2023,10,10,08,32,16.00
2023,10,10,08,33,16.00
2023,10,10,08,34,16.00
2023,10,10,08,35,17.70
2023,10,10,08,36,18.00
2023,10,10,08,37,18.00
2023,10,10,08,38,18.00
2023,10,10,08,39,18.00
2023,10,10,08,40,18.00
2023,10,10,08,41,18.00
2023,10,10,08,42,18.00
2023,10,10,08,43,18.00
2023,10,10,08,44,18.00
2023,10,10,08,45,18.00
2023,10,10,08,46,18.90
2023,10,10,08,47,19.00
2023,10,10,08,48,18.90
2023,10,10,08,49,18.00
2023,10,10,08,50,18.00
2023,10,10,08,51,18.00
2023,10,10,08,52,17.10
2023,10,10,08,53,16.00
2023,10,10,08,54,14.80
2023,10,10,08,55,14.00
2023,10,10,08,56,14.00
2023,10,10,08,57,12.30
2023,10,10,08,58,13.90
2023,10,10,08,59,14.00
2023,10,10,09,00,14.40
2023,10,10,09,01,16.00
2023,10,10,09,02,16.00
2023,10,10,09,03,16.00
2023,10,10,09,04,16.00
2023,10,10,09,05,16.00
2023,10,10,09,06,16.00
2023,10,10,09,07,16.00
2023,10,10,09,08,14.30
2023,10,10,09,09,13.90
2023,10,10,09,10,12.00
2023,10,10,09,11,12.00
2023,10,10,09,12,12.00
2023,10,10,09,13,12.80
2023,10,10,09,14,15.80
2023,10,10,09,15,18.60
2023,10,10,09,16,20.20
2023,10,10,09,17,21.00
2023,10,10,09,18,22.50
2023,10,10,09,19,23.00
2023,10,10,09,20,23.00
2023,10,10,09,21,22.70
2023,10,10,09,22,21.00
2023,10,10,09,23,21.00
2023,10,10,09,24,21.00
2023,10,10,09,25,21.00
2023,10,10,09,26,21.00
2023,10,10,09,27,21.00
2023,10,10,09,28,19.60
2023,10,10,09,29,19.00
2023,10,10,09,30,19.00
2023,10,10,09,31,19.00
2023,10,10,09,32,19.20
2023,10,10,09,33,21.00
2023,10,10,09,34,21.00
2023,10,10,09,35,21.70
2023,10,10,09,36,23.00
2023,10,10,09,37,24.10
2023,10,10,09,38,25.00
2023,10,10,09,39,25.00
2023,10,10,09,40,25.80
2023,10,10,09,41,26.00
2023,10,10,09,42,26.00
2023,10,10,09,43,25.90
2023,10,10,09,44,24.20
2023,10,10,09,45,22.10
2023,10,10,09,46,24.20
2023,10,10,09,47,23.90
2023,10,10,09,48,25.60
2023,10,10,09,49,26.00
2023,10,10,09,50,30.10
2023,10,10,09,51,35.80
2023,10,10,09,52,39.60
2023,10,10,09,53,41.90
2023,10,10,09,54,42.50
2023,10,10,09,55,48.00
2023,10,10,09,56,53.30
2023,10,10,09,57,54.00
2023,10,10,09,58,56.70
2023,10,10,09,59,61.70
2023,10,10,10,00,63.00
2023,10,10,10,01,68.00
2023,10,10,10,02,69.20
2023,10,10,10,03,65.60
2023,10,10,10,04,63.10
2023,10,10,10,05,62.90
2023,10,10,10,06,62.20
2023,10,10,10,07,64.10
2023,10,10,10,08,68.10
2023,10,10,10,09,71.80
2023,10,10,10,10,75.60
2023,10,10,10,11,79.50
2023,10,10,10,12,83.10
2023,10,10,10,13,89.60
2023,10,10,10,14,98.80
2023,10,10,10,15,108.70
2023,10,10,10,16,110.00
2023,10,10,10,17,115.60
2023,10,10,10,18,113.70
2023,10,10,10,19,113.00
2023,10,10,10,20,108.10
2023,10,10,10,21,97.30
2023,10,10,10,22,85.60
2023,10,10,10,23,73.40
2023,10,10,10,24,66.00
2023,10,10,10,25,63.30
2023,10,10,10,26,63.10
2023,10,10,10,27,65.40
2023,10,10,10,28,70.40
2023,10,10,10,29,77.90
2023,10,10,10,30,84.80
2023,10,10,10,31,89.30
2023,10,10,10,32,91.00
2023,10,10,10,33,91.00
2023,10,10,10,34,91.00
2023,10,10,10,35,92.50
2023,10,10,10,36,97.30
2023,10,10,10,37,105.00
2023,10,10,10,38,119.40
2023,10,10,10,39,135.50
2023,10,10,10,40,150.90
2023,10,10,10,41,156.00
2023,10,10,10,42,155.50
2023,10,10,10,43,156.60
2023,10,10,10,44,162.30
2023,10,10,10,45,166.40
2023,10,10,10,46,163.80
2023,10,10,10,47,152.70
2023,10,10,10,48,137.10
2023,10,10,10,49,126.30
2023,10,10,10,50,119.20
2023,10,10,10,51,116.00
2023,10,10,10,52,116.80
2023,10,10,10,53,115.90
2023,10,10,10,54,108.90
2023,10,10,10,55,103.20
2023,10,10,10,56,102.00
2023,10,10,10,57,102.00
2023,10,10,10,58,103.70
2023,10,10,10,59,103.90
2023,10,10,11,00,102.00
2023,10,10,11,01,102.00
2023,10,10,11,02,102.80
2023,10,10,11,03,106.50
2023,10,10,11,04,109.90
2023,10,10,11,05,111.00
2023,10,10,11,06,111.00
2023,10,10,11,07,111.00
2023,10,10,11,08,116.30
2023,10,10,11,09,122.30
2023,10,10,11,10,126.70
2023,10,10,11,11,127.10
2023,10,10,11,12,128.40
2023,10,10,11,13,131.40
2023,10,10,11,14,136.40
2023,10,10,11,15,140.30
2023,10,10,11,16,145.30
2023,10,10,11,17,151.10
2023,10,10,11,18,156.60
2023,10,10,11,19,168.20
2023,10,10,11,20,187.40
2023,10,10,11,21,213.10
2023,10,10,11,22,237.70
2023,10,10,11,23,248.90
2023,10,10,11,24,254.10
2023,10,10,11,25,257.00
2023,10,10,11,26,256.10
2023,10,10,11,27,254.00
2023,10,10,11,28,251.80
2023,10,10,11,29,250.30
2023,10,10,11,30,250.00
2023,10,10,11,31,250.90
2023,10,10,11,32,248.10
2023,10,10,11,33,252.10
2023,10,10,11,34,265.90
2023,10,10,11,35,295.10
2023,10,10,11,36,339.50
2023,10,10,11,37,362.40
2023,10,10,11,38,404.00
2023,10,10,11,39,422.70
2023,10,10,11,40,409.40
2023,10,10,11,41,369.10
2023,10,10,11,42,311.60
2023,10,10,11,43,278.00
2023,10,10,11,44,276.10
2023,10,10,11,45,250.80
2023,10,10,11,46,250.00
2023,10,10,11,47,250.30
2023,10,10,11,48,251.90
2023,10,10,11,49,251.40
2023,10,10,11,50,237.00
2023,10,10,11,51,224.90
2023,10,10,11,52,237.30
2023,10,10,11,53,264.20
2023,10,10,11,54,285.70
2023,10,10,11,55,290.50
2023,10,10,11,56,300.60
2023,10,10,11,57,312.60
2023,10,10,11,58,291.20
2023,10,10,11,59,304.20
2023,10,10,12,00,313.00
2023,10,10,12,01,360.80
2023,10,10,12,02,390.00
2023,10,10,12,03,390.00
2023,10,10,12,04,370.20
2023,10,10,12,05,418.20
2023,10,10,12,06,422.00
2023,10,10,12,07,424.90
2023,10,10,12,08,436.00
2023,10,10,12,09,508.10
2023,10,10,12,10,667.10
2023,10,10,12,11,724.10
2023,10,10,12,12,726.00
2023,10,10,12,13,717.70
2023,10,10,12,14,706.90
2023,10,10,12,15,705.00
2023,10,10,12,16,705.00
2023,10,10,12,17,705.00
2023,10,10,12,18,707.90
2023,10,10,12,19,714.00
2023,10,10,12,20,655.40
2023,10,10,12,21,631.60
2023,10,10,12,22,677.10
2023,10,10,12,23,673.40
2023,10,10,12,24,661.00
2023,10,10,12,25,657.00
2023,10,10,12,26,626.80
2023,10,10,12,27,610.20
2023,10,10,12,28,604.40
2023,10,10,12,29,599.40
2023,10,10,12,30,589.80
2023,10,10,12,31,583.30
2023,10,10,12,32,582.00
2023,10,10,12,33,582.00
2023,10,10,12,34,534.80
2023,10,10,12,35,506.00
2023,10,10,12,36,581.30
2023,10,10,12,37,611.30
2023,10,10,12,38,528.30
2023,10,10,12,39,504.70
2023,10,10,12,40,355.00
2023,10,10,12,41,355.00
2023,10,10,12,42,355.00
2023,10,10,12,43,323.60
2023,10,10,12,44,258.60
2023,10,10,12,45,234.00
2023,10,10,12,46,234.00
2023,10,10,12,47,226.90
2023,10,10,12,48,221.60
2023,10,10,12,49,212.20
2023,10,10,12,50,229.70
2023,10,10,12,51,256.90
2023,10,10,12,52,285.70
2023,10,10,12,53,320.00
2023,10,10,12,54,320.00
2023,10,10,12,55,320.00
2023,10,10,12,56,365.90
2023,10,10,12,57,365.80
2023,10,10,12,58,358.90
2023,10,10,12,59,411.70
2023,10,10,13,00,420.00
2023,10,10,13,01,420.00
2023,10,10,13,02,525.50
2023,10,10,13,03,952.30
2023,10,10,13,04,1000.80
2023,10,10,13,05,953.10
2023,10,10,13,06,869.60
2023,10,10,13,07,781.60
2023,10,10,13,08,752.00
2023,10,10,13,09,752.00
2023,10,10,13,10,847.70
2023,10,10,13,11,863.00
2023,10,10,13,12,863.00
2023,10,10,13,13,863.00
2023,10,10,13,14,863.00
2023,10,10,13,15,680.60
2023,10,10,13,16,334.00
2023,10,10,13,17,411.10
2023,10,10,13,18,448.20
2023,10,10,13,19,371.10
2023,10,10,13,20,327.00
2023,10,10,13,21,244.40
2023,10,10,13,22,225.40
2023,10,10,13,23,230.00
2023,10,10,13,24,265.80
2023,10,10,13,25,403.00
2023,10,10,13,26,403.00
2023,10,10,13,27,403.00
2023,10,10,13,28,403.00
2023,10,10,13,29,361.40
2023,10,10,13,30,331.20
2023,10,10,13,31,382.90
2023,10,10,13,32,397.00
2023,10,10,13,33,410.00
2023,10,10,13,34,772.80
2023,10,10,13,35,759.00
2023,10,10,13,36,702.70
2023,10,10,13,37,555.00
2023,10,10,13,38,639.70
2023,10,10,13,39,753.80
2023,10,10,13,40,761.80
2023,10,10,13,41,759.60
2023,10,10,13,42,755.10
2023,10,10,13,43,754.00
2023,10,10,13,44,751.10
2023,10,10,13,45,663.20
2023,10,10,13,46,632.60
2023,10,10,13,47,686.00
2023,10,10,13,48,686.00
2023,10,10,13,49,567.70
2023,10,10,13,50,422.00
2023,10,10,13,51,295.40
2023,10,10,13,52,234.70
2023,10,10,13,53,254.40
2023,10,10,13,54,258.00
2023,10,10,13,55,296.20
2023,10,10,13,56,299.00
2023,10,10,13,57,280.80
2023,10,10,13,58,230.90
2023,10,10,13,59,283.00
2023,10,10,14,00,283.00
2023,10,10,14,01,347.70
2023,10,10,14,02,408.00
2023,10,10,14,03,408.00
2023,10,10,14,04,408.00
2023,10,10,14,05,650.20
2023,10,10,14,06,675.20
2023,10,10,14,07,284.70
2023,10,10,14,08,257.80
2023,10,10,14,09,224.90
2023,10,10,14,10,209.90
2023,10,10,14,11,206.90
2023,10,10,14,12,223.90
2023,10,10,14,13,283.00
2023,10,10,14,14,275.10
2023,10,10,14,15,281.00
2023,10,10,14,16,301.60
2023,10,10,14,17,307.80
2023,10,10,14,18,308.20
2023,10,10,14,19,298.70
2023,10,10,14,20,289.70
2023,10,10,14,21,298.10
2023,10,10,14,22,301.10
2023,10,10,14,23,289.50
2023,10,10,14,24,272.60
2023,10,10,14,25,260.00
2023,10,10,14,26,251.70
2023,10,10,14,27,250.00
2023,10,10,14,28,355.10
2023,10,10,14,29,270.20
2023,10,10,14,30,238.40
2023,10,10,14,31,241.20
2023,10,10,14,32,271.70
2023,10,10,14,33,312.90
2023,10,10,14,34,330.00
2023,10,10,14,35,330.00
2023,10,10,14,36,385.20
2023,10,10,14,37,371.90
2023,10,10,14,38,362.00
2023,10,10,14,39,362.00
2023,10,10,14,40,346.70
2023,10,10,14,41,250.80
2023,10,10,14,42,251.40
2023,10,10,14,43,255.00
2023,10,10,14,44,258.00
2023,10,10,14,45,264.60
2023,10,10,14,46,267.00
2023,10,10,14,47,267.00
2023,10,10,14,48,587.60
2023,10,10,14,49,675.00
2023,10,10,14,50,675.00
2023,10,10,14,51,665.00
2023,10,10,14,52,582.00
2023,10,10,14,53,582.00
2023,10,10,14,54,582.00
2023,10,10,14,55,582.00
2023,10,10,14,56,582.00
2023,10,10,14,57,583.20
2023,10,10,14,58,584.00
2023,10,10,14,59,584.00
2023,10,10,15,00,584.00
2023,10,10,15,01,571.70
2023,10,10,15,02,224.50
2023,10,10,15,03,209.00
2023,10,10,15,04,318.90
2023,10,10,15,05,560.90
2023,10,10,15,06,557.00
2023,10,10,15,07,362.50
2023,10,10,15,08,152.40
2023,10,10,15,09,117.90
2023,10,10,15,10,108.00
2023,10,10,15,11,110.40
2023,10,10,15,12,111.00
2023,10,10,15,13,123.70
2023,10,10,15,14,131.00
2023,10,10,15,15,134.70
2023,10,10,15,16,131.70
2023,10,10,15,17,127.60
2023,10,10,15,18,127.60
2023,10,10,15,19,132.30
2023,10,10,15,20,141.40
2023,10,10,15,21,153.10
2023,10,10,15,22,162.00
2023,10,10,15,23,163.40
2023,10,10,15,24,176.50
2023,10,10,15,25,182.90
2023,10,10,15,26,192.80
2023,10,10,15,27,205.70
2023,10,10,15,28,232.60
2023,10,10,15,29,253.00
2023,10,10,15,30,253.00
2023,10,10,15,31,253.00
2023,10,10,15,32,458.40
2023,10,10,15,33,464.60
2023,10,10,15,34,455.10
2023,10,10,15,35,434.10
2023,10,10,15,36,253.00
2023,10,10,15,37,253.00
2023,10,10,15,38,279.60
2023,10,10,15,39,295.60
2023,10,10,15,40,264.00
2023,10,10,15,41,264.00
2023,10,10,15,42,213.30
2023,10,10,15,43,204.10
2023,10,10,15,44,207.00
2023,10,10,15,45,206.60
2023,10,10,15,46,196.70
2023,10,10,15,47,206.70
2023,10,10,15,48,184.10
2023,10,10,15,49,176.10
2023,10,10,15,50,171.00
2023,10,10,15,51,166.90
2023,10,10,15,52,161.10
2023,10,10,15,53,156.60
2023,10,10,15,54,175.60
2023,10,10,15,55,167.20
2023,10,10,15,56,247.10
2023,10,10,15,57,171.90
2023,10,10,15,58,176.10
2023,10,10,15,59,176.60
2023,10,10,16,00,207.00
2023,10,10,16,01,207.00
2023,10,10,16,02,203.20
2023,10,10,16,03,199.40
2023,10,10,16,04,199.70
2023,10,10,16,05,201.60
2023,10,10,16,06,203.70
2023,10,10,16,07,206.90
2023,10,10,16,08,205.70
2023,10,10,16,09,204.00
2023,10,10,16,10,204.00
2023,10,10,16,11,204.00
2023,10,10,16,12,203.10
2023,10,10,16,13,201.00
2023,10,10,16,14,200.00
2023,10,10,16,15,200.00
2023,10,10,16,16,200.00
2023,10,10,16,17,343.10
2023,10,10,16,18,299.40
2023,10,10,16,19,282.60
2023,10,10,16,20,158.90
2023,10,10,16,21,131.30
2023,10,10,16,22,104.80
2023,10,10,16,23,88.50
2023,10,10,16,24,79.90
2023,10,10,16,25,75.10
2023,10,10,16,26,72.60
2023,10,10,16,27,70.40
2023,10,10,16,28,75.20
2023,10,10,16,29,77.00
2023,10,10,16,30,79.20
2023,10,10,16,31,80.60
2023,10,10,16,32,78.40
2023,10,10,16,33,76.60
2023,10,10,16,34,76.00
2023,10,10,16,35,76.00
2023,10,10,16,36,76.60
2023,10,10,16,37,77.00
2023,10,10,16,38,77.00
2023,10,10,16,39,77.00
2023,10,10,16,40,76.00
2023,10,10,16,41,73.40
2023,10,10,16,42,69.80
2023,10,10,16,43,68.40
2023,10,10,16,44,66.30
2023,10,10,16,45,65.00
2023,10,10,16,46,66.00
2023,10,10,16,47,67.00
2023,10,10,16,48,69.10
2023,10,10,16,49,73.10
2023,10,10,16,50,78.30
2023,10,10,16,51,112.70
2023,10,10,16,52,104.40
2023,10,10,16,53,191.80
2023,10,10,16,54,188.10
2023,10,10,16,55,141.20
2023,10,10,16,56,176.00
2023,10,10,16,57,147.60
2023,10,10,16,58,130.00
2023,10,10,16,59,134.30
2023,10,10,17,00,136.30
2023,10,10,17,01,141.30
2023,10,10,17,02,150.80
2023,10,10,17,03,155.00
2023,10,10,17,04,180.70
2023,10,10,17,05,264.10
2023,10,10,17,06,212.90
2023,10,10,17,07,175.70
2023,10,10,17,08,163.00
2023,10,10,17,09,169.40
2023,10,10,17,10,171.90
2023,10,10,17,11,155.10
2023,10,10,17,12,143.20
2023,10,10,17,13,131.70
2023,10,10,17,14,110.90
2023,10,10,17,15,96.60
2023,10,10,17,16,88.10
2023,10,10,17,17,82.20
2023,10,10,17,18,79.20
2023,10,10,17,19,72.60
2023,10,10,17,20,66.50
2023,10,10,17,21,65.00
2023,10,10,17,22,61.10
2023,10,10,17,23,56.60
2023,10,10,17,24,56.10